Time,TemperatureF,DewpointF,PressureIn,WindDirection,WindDirectionDegrees,WindSpeedMPH,WindSpeedGustMPH,Humidity,HourlyPrecipIn,Conditions,Clouds,dailyrainin,SoftwareType,DateUTC
2013-02-25 00:04:00,46.9,14.7,29.84,NE,42,0.0,5.0,27,0.00,,,0.00,meteohub,2013-02-25 08:04:00,
2013-02-25 00:10:00,46.6,14.4,29.84,ENE,60,5.0,5.0,27,0.00,,,0.00,meteohub,2013-02-25 08:10:00,
2013-02-25 00:16:00,46.6,11.7,29.81,NE,41,0.0,5.0,24,0.00,,,0.00,meteohub,2013-02-25 08:16:00,
2013-02-25 00:22:00,47.3,12.4,29.81,NNW,339,0.0,5.0,24,0.00,,,0.00,meteohub,2013-02-25 08:22:00,
2013-02-25 00:28:00,46.2,12.4,29.84,NNW,339,0.0,5.0,25,0.00,,,0.00,meteohub,2013-02-25 08:28:00,
2013-02-25 00:34:00,46.0,12.2,29.84,North,357,2.0,2.0,25,0.00,,,0.00,meteohub,2013-02-25 08:34:00,
2013-02-25 00:40:00,45.1,11.5,29.84,NNE,29,3.0,3.0,25,0.00,,,0.00,meteohub,2013-02-25 08:40:00,
2013-02-25 00:46:00,45.3,11.5,29.84,NNE,29,0.0,3.0,25,0.00,,,0.00,meteohub,2013-02-25 08:46:00,
2013-02-25 00:52:00,45.3,11.5,29.84,NNE,13,0.0,3.0,25,0.00,,,0.00,meteohub,2013-02-25 08:52:00,
2013-02-25 00:58:00,45.1,11.5,29.84,NE,44,0.0,3.0,25,0.00,,,0.00,meteohub,2013-02-25 08:58:00,
2013-02-25 01:04:00,47.1,12.2,29.84,South,182,0.0,0.0,24,0.00,,,0.00,meteohub,2013-02-25 09:04:00,
2013-02-25 01:10:00,47.3,10.4,29.84,ENE,59,3.0,8.0,22,0.00,,,0.00,meteohub,2013-02-25 09:10:00,
2013-02-25 01:16:00,47.7,10.6,29.84,West,279,0.0,8.0,22,0.00,,,0.00,meteohub,2013-02-25 09:16:00,
2013-02-25 01:22:00,47.5,10.6,29.84,North,357,2.0,8.0,22,0.00,,,0.00,meteohub,2013-02-25 09:22:00,
2013-02-25 01:28:00,47.3,10.4,29.84,NNW,338,0.0,5.0,22,0.00,,,0.00,meteohub,2013-02-25 09:28:00,
2013-02-25 01:34:00,47.3,10.4,29.84,SE,136,2.0,4.0,22,0.00,,,0.00,meteohub,2013-02-25 09:34:00,
2013-02-25 01:41:00,46.4,9.7,29.84,WSW,250,0.0,5.0,22,0.00,,,0.00,meteohub,2013-02-25 09:41:00,
2013-02-25 01:47:00,45.5,8.8,29.84,NW,321,0.0,5.0,22,0.00,,,0.00,meteohub,2013-02-25 09:47:00,
2013-02-25 01:53:00,45.3,8.8,29.84,SSW,212,0.0,2.0,22,0.00,,,0.00,meteohub,2013-02-25 09:53:00,
2013-02-25 01:59:00,45.7,9.0,29.84,NNE,22,0.0,0.0,22,0.00,,,0.00,meteohub,2013-02-25 09:59:00,
2013-02-25 02:05:00,45.1,8.6,29.84,East,95,3.0,4.0,22,0.00,,,0.00,meteohub,2013-02-25 10:05:00,
2013-02-25 02:11:00,45.3,8.8,29.81,NW,326,0.0,5.0,22,0.00,,,0.00,meteohub,2013-02-25 10:11:00,
2013-02-25 02:17:00,46.0,9.3,29.81,SSW,199,0.0,5.0,22,0.00,,,0.00,meteohub,2013-02-25 10:17:00,
2013-02-25 02:23:00,45.7,9.0,29.81,ENE,75,6.0,0.0,22,0.00,,,0.00,meteohub,2013-02-25 10:23:00,
2013-02-25 02:29:00,45.3,8.8,29.81,ENE,77,3.0,6.0,22,0.00,,,0.00,meteohub,2013-02-25 10:29:00,
2013-02-25 02:35:00,46.0,9.3,29.81,SSW,207,0.0,6.0,22,0.00,,,0.00,meteohub,2013-02-25 10:35:00,
2013-02-25 02:41:00,45.0,8.4,29.81,NE,45,3.0,6.0,22,0.00,,,0.00,meteohub,2013-02-25 10:41:00,
2013-02-25 02:47:00,45.7,9.0,29.81,SW,235,0.0,4.0,22,0.00,,,0.00,meteohub,2013-02-25 10:47:00,
2013-02-25 02:53:00,45.3,8.8,29.81,NNE,17,0.0,5.0,22,0.00,,,0.00,meteohub,2013-02-25 10:53:00,
2013-02-25 02:59:00,44.8,8.2,29.81,North,8,4.0,5.0,22,0.00,,,0.00,meteohub,2013-02-25 10:59:00,
2013-02-25 03:05:00,45.7,9.0,29.81,North,9,0.0,5.0,22,0.00,,,0.00,meteohub,2013-02-25 11:05:00,
2013-02-25 03:11:00,45.1,8.6,29.81,North,357,0.0,5.0,22,0.00,,,0.00,meteohub,2013-02-25 11:11:00,
2013-02-25 03:17:00,45.3,8.8,29.81,NNW,328,0.0,5.0,22,0.00,,,0.00,meteohub,2013-02-25 11:17:00,
2013-02-25 03:23:00,45.5,8.8,29.81,ENE,74,5.0,0.0,22,0.00,,,0.00,meteohub,2013-02-25 11:23:00,
2013-02-25 03:29:00,47.1,12.2,29.81,ENE,65,4.0,5.0,24,0.00,,,0.00,meteohub,2013-02-25 11:29:00,
2013-02-25 03:35:00,47.3,10.4,29.81,East,79,5.0,8.0,22,0.00,,,0.00,meteohub,2013-02-25 11:35:00,
2013-02-25 03:41:00,47.3,10.4,29.81,NE,51,6.0,8.0,22,0.00,,,0.00,meteohub,2013-02-25 11:41:00,
2013-02-25 03:47:00,47.7,10.6,29.81,North,6,3.0,8.0,22,0.00,,,0.00,meteohub,2013-02-25 11:47:00,
2013-02-25 03:53:00,47.7,10.6,29.81,North,353,0.0,8.0,22,0.00,,,0.00,meteohub,2013-02-25 11:53:00,
2013-02-25 03:59:00,47.3,10.4,29.81,North,357,0.0,6.0,22,0.00,,,0.00,meteohub,2013-02-25 11:59:00,
2013-02-25 04:05:00,47.1,10.2,29.81,East,99,3.0,5.0,22,0.00,,,0.00,meteohub,2013-02-25 12:05:00,
2013-02-25 04:11:00,47.5,10.6,29.81,West,260,0.0,5.0,22,0.00,,,0.00,meteohub,2013-02-25 12:11:00,
2013-02-25 04:17:00,46.2,9.5,29.81,NNE,15,0.0,5.0,22,0.00,,,0.00,meteohub,2013-02-25 12:17:00,
2013-02-25 04:22:00,45.5,8.8,29.81,North,4,0.0,4.0,22,0.00,,,0.00,meteohub,2013-02-25 12:22:00,
2013-02-25 04:28:00,45.1,8.6,29.81,NW,318,0.0,0.0,22,0.00,,,0.00,meteohub,2013-02-25 12:28:00,
2013-02-25 04:34:00,45.7,6.8,29.81,ESE,110,4.0,0.0,20,0.00,,,0.00,meteohub,2013-02-25 12:34:00,
2013-02-25 04:40:00,47.3,7.2,29.81,ENE,76,6.0,6.0,19,0.00,,,0.00,meteohub,2013-02-25 12:40:00,
2013-02-25 04:46:00,47.8,7.5,29.81,East,81,4.0,8.0,19,0.00,,,0.00,meteohub,2013-02-25 12:46:00,
2013-02-25 04:53:00,48.2,7.9,29.81,NE,48,6.0,8.0,19,0.00,,,0.00,meteohub,2013-02-25 12:53:00,
2013-02-25 04:59:00,47.7,7.3,29.81,NW,315,3.0,10.0,19,0.00,,,0.00,meteohub,2013-02-25 12:59:00,
2013-02-25 05:05:00,47.1,7.0,29.81,WSW,245,3.0,10.0,19,0.00,,,0.00,meteohub,2013-02-25 13:05:00,
2013-02-25 05:11:00,46.4,6.4,29.81,NNW,345,0.0,4.0,19,0.00,,,0.00,meteohub,2013-02-25 13:11:00,
2013-02-25 05:17:00,45.3,6.6,29.81,NNW,345,0.0,4.0,20,0.00,,,0.00,meteohub,2013-02-25 13:17:00,
2013-02-25 05:22:00,44.2,5.7,29.81,NNW,345,0.0,4.0,20,0.00,,,0.00,meteohub,2013-02-25 13:22:00,
2013-02-25 05:28:00,43.7,5.2,29.81,NE,34,0.0,0.0,20,0.00,,,0.00,meteohub,2013-02-25 13:28:00,
2013-02-25 05:34:00,43.5,5.0,29.81,NE,38,0.0,0.0,20,0.00,,,0.00,meteohub,2013-02-25 13:34:00,
2013-02-25 05:40:00,43.7,5.2,29.81,NE,38,0.0,0.0,20,0.00,,,0.00,meteohub,2013-02-25 13:40:00,
2013-02-25 05:46:00,44.6,5.9,29.81,NNE,21,0.0,4.0,20,0.00,,,0.00,meteohub,2013-02-25 13:46:00,
2013-02-25 05:52:00,45.1,6.4,29.81,NNW,328,0.0,5.0,20,0.00,,,0.00,meteohub,2013-02-25 13:52:00,
2013-02-25 05:58:00,45.9,7.0,29.81,West,264,0.0,5.0,20,0.00,,,0.00,meteohub,2013-02-25 13:58:00,
2013-02-25 06:05:00,45.5,6.8,29.81,NW,321,0.0,5.0,20,0.00,,,0.00,meteohub,2013-02-25 14:05:00,
2013-02-25 06:11:00,45.0,6.3,29.81,SSW,210,0.0,0.0,20,0.00,,,0.00,meteohub,2013-02-25 14:11:00,
2013-02-25 06:17:00,46.2,7.3,29.81,SSE,162,0.0,0.0,20,0.00,,,0.00,meteohub,2013-02-25 14:17:00,
2013-02-25 06:23:00,47.5,7.3,29.81,South,175,0.0,0.0,19,0.00,,,0.00,meteohub,2013-02-25 14:23:00,
2013-02-25 06:29:00,46.9,6.8,29.81,NNW,344,0.0,5.0,19,0.00,,,0.00,meteohub,2013-02-25 14:29:00,
2013-02-25 06:35:00,46.6,6.4,29.81,West,275,0.0,5.0,19,0.00,,,0.00,meteohub,2013-02-25 14:35:00,
2013-02-25 06:41:00,46.4,6.4,29.81,NNW,327,0.0,0.0,19,0.00,,,0.00,meteohub,2013-02-25 14:41:00,
2013-02-25 06:47:00,46.2,7.3,29.81,North,4,0.0,0.0,20,0.00,,,0.00,meteohub,2013-02-25 14:47:00,
2013-02-25 06:53:00,46.0,7.2,29.81,North,1,0.0,0.0,20,0.00,,,0.00,meteohub,2013-02-25 14:53:00,
2013-02-25 06:59:00,45.5,6.8,29.81,North,1,0.0,0.0,20,0.00,,,0.00,meteohub,2013-02-25 14:59:00,
2013-02-25 07:05:00,46.2,7.3,29.81,North,1,0.0,0.0,20,0.00,,,0.00,meteohub,2013-02-25 15:05:00,
2013-02-25 07:11:00,46.2,7.3,29.81,NNE,22,0.0,0.0,20,0.00,,,0.00,meteohub,2013-02-25 15:11:00,
2013-02-25 07:17:00,46.8,6.6,29.81,NNE,22,0.0,0.0,19,0.00,,,0.00,meteohub,2013-02-25 15:17:00,
2013-02-25 07:23:00,47.7,7.3,29.81,NNE,18,0.0,0.0,19,0.00,,,0.00,meteohub,2013-02-25 15:23:00,
2013-02-25 07:29:00,48.2,7.9,29.81,NNW,333,0.0,0.0,19,0.00,,,0.00,meteohub,2013-02-25 15:29:00,
2013-02-25 07:35:00,48.9,8.4,29.81,NNW,333,0.0,0.0,19,0.00,,,0.00,meteohub,2013-02-25 15:35:00,
2013-02-25 07:41:00,49.1,8.6,29.81,NNW,333,0.0,0.0,19,0.00,,,0.00,meteohub,2013-02-25 15:41:00,
2013-02-25 07:47:00,49.6,9.0,29.81,West,274,0.0,0.0,19,0.00,,,0.00,meteohub,2013-02-25 15:47:00,
2013-02-25 07:53:00,50.2,11.7,29.81,West,264,0.0,0.0,21,0.00,,,0.00,meteohub,2013-02-25 15:53:00,
2013-02-25 07:59:00,50.5,12.0,29.81,West,259,0.0,0.0,21,0.00,,,0.00,meteohub,2013-02-25 15:59:00,
2013-02-25 08:05:00,51.3,10.4,29.81,West,272,0.0,0.0,19,0.00,,,0.00,meteohub,2013-02-25 16:05:00,
2013-02-25 08:11:00,52.0,9.7,29.81,SSW,209,0.0,0.0,18,0.00,,,0.00,meteohub,2013-02-25 16:11:00,
2013-02-25 08:17:00,52.3,10.0,29.81,SSW,204,0.0,0.0,18,0.00,,,0.00,meteohub,2013-02-25 16:17:00,
2013-02-25 08:23:00,52.7,13.8,29.81,SSW,204,0.0,0.0,21,0.00,,,0.00,meteohub,2013-02-25 16:23:00,
2013-02-25 08:29:00,52.9,10.6,29.81,SSW,204,0.0,0.0,18,0.00,,,0.00,meteohub,2013-02-25 16:29:00,
2013-02-25 08:35:00,53.4,10.9,29.81,SSW,204,0.0,0.0,18,0.00,,,0.00,meteohub,2013-02-25 16:35:00,
2013-02-25 08:42:00,54.1,11.5,29.81,SSW,204,0.0,0.0,18,0.00,,,0.00,meteohub,2013-02-25 16:42:00,
2013-02-25 08:48:00,56.1,15.6,29.81,West,265,0.0,0.0,20,0.00,,,0.00,meteohub,2013-02-25 16:48:00,
2013-02-25 08:54:00,56.3,15.8,29.81,NW,316,0.0,0.0,20,0.00,,,0.00,meteohub,2013-02-25 16:54:00,
2013-02-25 09:00:00,57.6,15.6,29.81,SSW,195,3.0,0.0,19,0.00,,,0.00,meteohub,2013-02-25 17:00:00,
2013-02-25 09:06:00,57.9,15.8,29.81,SW,215,0.0,3.0,19,0.00,,,0.00,meteohub,2013-02-25 17:06:00,
2013-02-25 09:12:00,59.4,17.1,29.81,SSW,207,3.0,3.0,19,0.00,,,0.00,meteohub,2013-02-25 17:12:00,
2013-02-25 09:18:00,60.6,18.1,29.81,SSE,162,0.0,3.0,19,0.00,,,0.00,meteohub,2013-02-25 17:18:00,
2013-02-25 09:24:00,63.0,18.9,29.81,SW,222,0.0,3.0,18,0.00,,,0.00,meteohub,2013-02-25 17:24:00,
2013-02-25 09:30:00,64.4,19.9,29.81,SSE,164,3.0,3.0,18,0.00,,,0.00,meteohub,2013-02-25 17:30:00,
2013-02-25 09:36:00,66.2,20.1,29.81,SSW,195,3.0,4.0,17,0.00,,,0.00,meteohub,2013-02-25 17:36:00,
2013-02-25 09:42:00,70.0,23.2,29.81,SW,222,2.0,4.0,17,0.00,,,0.00,meteohub,2013-02-25 17:42:00,
2013-02-25 09:48:00,75.6,24.6,29.81,West,270,0.0,4.0,15,0.00,,,0.00,meteohub,2013-02-25 17:48:00,
2013-02-25 09:54:00,71.6,23.0,29.81,SW,225,5.0,5.0,16,0.00,,,0.00,meteohub,2013-02-25 17:54:00,
2013-02-25 10:00:00,70.9,23.9,29.81,West,272,3.0,5.0,17,0.00,,,0.00,meteohub,2013-02-25 18:00:00,
2013-02-25 10:06:00,70.2,23.4,29.81,SW,232,4.0,5.0,17,0.00,,,0.00,meteohub,2013-02-25 18:06:00,
2013-02-25 10:12:00,74.8,25.7,29.81,West,260,4.0,5.0,16,0.00,,,0.00,meteohub,2013-02-25 18:12:00,
2013-02-25 10:18:00,72.5,23.7,29.81,West,273,2.0,5.0,16,0.00,,,0.00,meteohub,2013-02-25 18:18:00,
2013-02-25 10:24:00,71.6,23.0,29.81,SSW,207,8.0,8.0,16,0.00,,,0.00,meteohub,2013-02-25 18:24:00,
2013-02-25 10:30:00,69.4,26.6,29.81,SW,228,4.0,8.0,20,0.00,,,0.00,meteohub,2013-02-25 18:30:00,
2013-02-25 10:36:00,72.1,27.7,29.81,South,190,3.0,8.0,19,0.00,,,0.00,meteohub,2013-02-25 18:36:00,
2013-02-25 10:43:00,68.9,26.2,29.81,WSW,237,3.0,8.0,20,0.00,,,0.00,meteohub,2013-02-25 18:43:00,
2013-02-25 10:49:00,69.6,29.1,29.81,SSW,196,6.0,10.0,22,0.00,,,0.00,meteohub,2013-02-25 18:49:00,
2013-02-25 10:55:00,68.0,27.7,29.81,South,181,5.0,10.0,22,0.00,,,0.00,meteohub,2013-02-25 18:55:00,
2013-02-25 11:01:00,68.4,28.0,29.81,SW,227,6.0,8.0,22,0.00,,,0.00,meteohub,2013-02-25 19:01:00,
2013-02-25 11:07:00,70.7,26.4,29.81,SSW,212,4.0,8.0,19,0.00,,,0.00,meteohub,2013-02-25 19:07:00,
2013-02-25 11:13:00,71.6,29.7,29.81,West,263,6.0,8.0,21,0.00,,,0.00,meteohub,2013-02-25 19:13:00,
2013-02-25 11:19:00,71.1,26.8,29.81,SSW,200,6.0,8.0,19,0.00,,,0.00,meteohub,2013-02-25 19:19:00,
2013-02-25 11:25:00,70.5,29.8,29.81,WSW,249,5.0,8.0,22,0.00,,,0.00,meteohub,2013-02-25 19:25:00,
2013-02-25 11:31:00,70.7,30.0,29.81,WNW,292,5.0,8.0,22,0.00,,,0.00,meteohub,2013-02-25 19:31:00,
2013-02-25 11:37:00,70.7,30.0,29.81,SW,235,6.0,8.0,22,0.00,,,0.00,meteohub,2013-02-25 19:37:00,
2013-02-25 11:43:00,68.2,28.9,29.81,WSW,254,6.0,8.0,23,0.00,,,0.00,meteohub,2013-02-25 19:43:00,
2013-02-25 11:49:00,74.1,31.6,29.81,NNW,341,3.0,9.0,21,0.00,,,0.00,meteohub,2013-02-25 19:49:00,
2013-02-25 11:55:00,72.0,31.1,29.81,SSW,212,5.0,9.0,22,0.00,,,0.00,meteohub,2013-02-25 19:55:00,
2013-02-25 12:01:00,69.1,29.7,29.81,SSW,213,6.0,8.0,23,0.00,,,0.00,meteohub,2013-02-25 20:01:00,
2013-02-25 12:07:00,71.1,30.2,29.81,WSW,257,5.0,8.0,22,0.00,,,0.00,meteohub,2013-02-25 20:07:00,
2013-02-25 12:13:00,73.2,32.2,29.78,South,170,4.0,8.0,22,0.00,,,0.00,meteohub,2013-02-25 20:13:00,
2013-02-25 12:19:00,70.9,31.3,29.78,WNW,286,5.0,8.0,23,0.00,,,0.00,meteohub,2013-02-25 20:19:00,
2013-02-25 12:25:00,75.4,34.0,29.78,NW,310,3.0,8.0,22,0.00,,,0.00,meteohub,2013-02-25 20:25:00,
2013-02-25 12:31:00,73.9,32.7,29.78,WSW,244,4.0,8.0,22,0.00,,,0.00,meteohub,2013-02-25 20:31:00,
2013-02-25 12:37:00,72.0,31.1,29.78,SSW,205,5.0,8.0,22,0.00,,,0.00,meteohub,2013-02-25 20:37:00,
2013-02-25 12:43:00,71.2,31.5,29.78,WSW,254,5.0,8.0,23,0.00,,,0.00,meteohub,2013-02-25 20:43:00,
2013-02-25 12:49:00,74.8,33.4,29.78,SSW,205,6.0,9.0,22,0.00,,,0.00,meteohub,2013-02-25 20:49:00,
2013-02-25 12:56:00,73.0,32.0,29.78,WSW,258,6.0,9.0,22,0.00,,,0.00,meteohub,2013-02-25 20:56:00,
2013-02-25 13:02:00,74.8,33.4,29.78,WSW,253,5.0,8.0,22,0.00,,,0.00,meteohub,2013-02-25 21:02:00,
2013-02-25 13:08:00,76.3,34.7,29.78,South,177,3.0,8.0,22,0.00,,,0.00,meteohub,2013-02-25 21:08:00,
2013-02-25 13:14:00,75.2,33.8,29.75,SW,235,8.0,8.0,22,0.00,,,0.00,meteohub,2013-02-25 21:14:00,
2013-02-25 13:20:00,76.8,35.1,29.75,SW,228,4.0,9.0,22,0.00,,,0.00,meteohub,2013-02-25 21:20:00,
2013-02-25 13:26:00,77.0,34.2,29.75,SSW,205,6.0,9.0,21,0.00,,,0.00,meteohub,2013-02-25 21:26:00,
2013-02-25 13:32:00,73.2,34.3,29.75,WNW,286,6.0,9.0,24,0.00,,,0.00,meteohub,2013-02-25 21:32:00,
2013-02-25 13:38:00,73.6,33.4,29.75,NNW,329,3.0,9.0,23,0.00,,,0.00,meteohub,2013-02-25 21:38:00,
2013-02-25 13:44:00,75.2,33.8,29.75,WSW,238,4.0,8.0,22,0.00,,,0.00,meteohub,2013-02-25 21:44:00,
2013-02-25 13:50:00,72.3,32.4,29.75,SW,234,4.0,9.0,23,0.00,,,0.00,meteohub,2013-02-25 21:50:00,
2013-02-25 13:56:00,72.0,32.2,29.75,SSW,208,6.0,9.0,23,0.00,,,0.00,meteohub,2013-02-25 21:56:00,
2013-02-25 14:02:00,72.7,32.7,29.75,SW,224,4.0,9.0,23,0.00,,,0.00,meteohub,2013-02-25 22:02:00,
2013-02-25 14:08:00,71.4,31.6,29.75,SW,226,8.0,9.0,23,0.00,,,0.00,meteohub,2013-02-25 22:08:00,
2013-02-25 14:14:00,73.6,32.4,29.75,NW,320,3.0,9.0,22,0.00,,,0.00,meteohub,2013-02-25 22:14:00,
2013-02-25 14:20:00,71.2,31.5,29.75,SW,234,4.0,8.0,23,0.00,,,0.00,meteohub,2013-02-25 22:20:00,
2013-02-25 14:26:00,75.4,34.0,29.75,NW,313,5.0,8.0,22,0.00,,,0.00,meteohub,2013-02-25 22:26:00,
2013-02-25 14:32:00,73.8,32.5,29.75,South,186,3.0,8.0,22,0.00,,,0.00,meteohub,2013-02-25 22:32:00,
2013-02-25 14:38:00,72.3,32.4,29.75,SW,231,3.0,8.0,23,0.00,,,0.00,meteohub,2013-02-25 22:38:00,
2013-02-25 14:44:00,75.0,33.6,29.75,South,186,3.0,8.0,22,0.00,,,0.00,meteohub,2013-02-25 22:44:00,
2013-02-25 14:50:00,77.2,33.1,29.75,WSW,253,5.0,8.0,20,0.00,,,0.00,meteohub,2013-02-25 22:50:00,
2013-02-25 14:56:00,74.7,32.2,29.75,SW,232,4.0,7.0,21,0.00,,,0.00,meteohub,2013-02-25 22:56:00,
2013-02-25 15:02:00,75.7,31.8,29.75,West,262,0.0,6.0,20,0.00,,,0.00,meteohub,2013-02-25 23:02:00,
2013-02-25 15:08:00,74.5,32.0,29.75,West,266,4.0,6.0,21,0.00,,,0.00,meteohub,2013-02-25 23:08:00,
2013-02-25 15:14:00,75.9,29.3,29.75,WNW,294,4.0,7.0,18,0.00,,,0.00,meteohub,2013-02-25 23:14:00,
2013-02-25 15:20:00,77.5,33.3,29.75,NW,312,3.0,7.0,20,0.00,,,0.00,meteohub,2013-02-25 23:20:00,
2013-02-25 15:26:00,75.4,24.4,29.75,WNW,298,3.0,6.0,15,0.00,,,0.00,meteohub,2013-02-25 23:26:00,
2013-02-25 15:32:00,76.5,29.8,29.75,West,266,6.0,6.0,18,0.00,,,0.00,meteohub,2013-02-25 23:32:00,
2013-02-25 15:38:00,75.4,28.9,29.75,West,273,4.0,6.0,18,0.00,,,0.00,meteohub,2013-02-25 23:38:00,
2013-02-25 15:44:00,73.8,27.7,29.72,SSW,192,0.0,6.0,18,0.00,,,0.00,meteohub,2013-02-25 23:44:00,
2013-02-25 15:50:00,77.2,30.4,29.72,WNW,283,2.0,6.0,18,0.00,,,0.00,meteohub,2013-02-25 23:50:00,
2013-02-25 15:56:00,74.8,28.4,29.72,WNW,301,3.0,6.0,18,0.00,,,0.00,meteohub,2013-02-25 23:56:00,
2013-02-25 16:02:00,72.0,27.5,29.72,SW,215,6.0,6.0,19,0.00,,,0.00,meteohub,2013-02-26 00:02:00,
2013-02-25 16:07:00,70.0,29.3,29.72,SW,218,3.0,8.0,22,0.00,,,0.00,meteohub,2013-02-26 00:07:00,
2013-02-25 16:13:00,73.0,30.7,29.72,NW,320,3.0,8.0,21,0.00,,,0.00,meteohub,2013-02-26 00:13:00,
2013-02-25 16:19:00,72.1,30.0,29.72,West,266,2.0,8.0,21,0.00,,,0.00,meteohub,2013-02-26 00:19:00,
2013-02-25 16:25:00,72.7,30.6,29.72,NW,314,6.0,6.0,21,0.00,,,0.00,meteohub,2013-02-26 00:25:00,
2013-02-25 16:31:00,71.8,29.7,29.72,WNW,301,0.0,6.0,21,0.00,,,0.00,meteohub,2013-02-26 00:31:00,
2013-02-25 16:37:00,69.3,28.8,29.72,WNW,294,4.0,7.0,22,0.00,,,0.00,meteohub,2013-02-26 00:37:00,
2013-02-25 16:43:00,70.0,29.3,29.72,NW,312,5.0,7.0,22,0.00,,,0.00,meteohub,2013-02-26 00:43:00,
2013-02-25 16:49:00,68.5,28.2,29.72,NNW,327,0.0,7.0,22,0.00,,,0.00,meteohub,2013-02-26 00:49:00,
2013-02-25 16:55:00,68.2,27.9,29.72,WSW,254,4.0,7.0,22,0.00,,,0.00,meteohub,2013-02-26 00:55:00,
2013-02-25 17:01:00,68.2,28.9,29.72,NNW,331,3.0,7.0,23,0.00,,,0.00,meteohub,2013-02-26 01:01:00,
2013-02-25 17:07:00,67.8,29.7,29.72,WNW,291,4.0,7.0,24,0.00,,,0.00,meteohub,2013-02-26 01:07:00,
2013-02-25 17:13:00,67.8,29.7,29.69,West,275,2.0,6.0,24,0.00,,,0.00,meteohub,2013-02-26 01:13:00,
2013-02-25 17:19:00,67.1,30.0,29.69,West,259,5.0,6.0,25,0.00,,,0.00,meteohub,2013-02-26 01:19:00,
2013-02-25 17:25:00,65.7,35.1,29.69,NW,313,4.0,5.0,32,0.00,,,0.00,meteohub,2013-02-26 01:25:00,
2013-02-25 17:31:00,63.1,38.5,29.72,NNW,331,0.0,6.0,40,0.00,,,0.00,meteohub,2013-02-26 01:31:00,
2013-02-25 17:37:00,61.9,39.2,29.72,West,264,0.0,6.0,43,0.00,,,0.00,meteohub,2013-02-26 01:37:00,
2013-02-25 17:43:00,61.3,40.5,29.69,WNW,298,2.0,6.0,46,0.00,,,0.00,meteohub,2013-02-26 01:43:00,
2013-02-25 17:49:00,60.8,41.5,29.69,NW,312,3.0,5.0,49,0.00,,,0.00,meteohub,2013-02-26 01:49:00,
2013-02-25 17:55:00,60.4,41.7,29.69,WNW,287,0.0,4.0,50,0.00,,,0.00,meteohub,2013-02-26 01:55:00,
2013-02-25 18:01:00,60.4,43.7,29.69,WSW,257,0.0,4.0,54,0.00,,,0.00,meteohub,2013-02-26 02:01:00,
2013-02-25 18:07:00,60.3,45.5,29.69,West,279,0.0,3.0,58,0.00,,,0.00,meteohub,2013-02-26 02:07:00,
2013-02-25 18:13:00,60.8,47.3,29.69,NW,305,0.0,4.0,61,0.00,,,0.00,meteohub,2013-02-26 02:13:00,
2013-02-25 18:19:00,60.3,46.4,29.69,West,270,0.0,4.0,60,0.00,,,0.00,meteohub,2013-02-26 02:19:00,
2013-02-25 18:26:00,59.7,46.2,29.69,West,270,0.0,0.0,61,0.00,,,0.00,meteohub,2013-02-26 02:26:00,
2013-02-25 18:32:00,59.4,47.7,29.69,West,270,0.0,0.0,65,0.00,,,0.00,meteohub,2013-02-26 02:32:00,
2013-02-25 18:38:00,59.0,46.0,29.69,West,270,0.0,0.0,62,0.00,,,0.00,meteohub,2013-02-26 02:38:00,
2013-02-25 18:44:00,58.5,45.9,29.69,West,270,0.0,0.0,63,0.00,,,0.00,meteohub,2013-02-26 02:44:00,
2013-02-25 18:50:00,58.8,47.8,29.69,West,270,0.0,0.0,67,0.00,,,0.00,meteohub,2013-02-26 02:50:00,
2013-02-25 18:56:00,58.6,47.7,29.72,West,270,0.0,0.0,67,0.00,,,0.00,meteohub,2013-02-26 02:56:00,
2013-02-25 19:02:00,58.5,47.1,29.72,West,270,0.0,0.0,66,0.00,,,0.00,meteohub,2013-02-26 03:02:00,
2013-02-25 19:08:00,58.1,46.4,29.72,West,270,0.0,0.0,65,0.00,,,0.00,meteohub,2013-02-26 03:08:00,
2013-02-25 19:14:00,58.1,46.8,29.72,West,270,0.0,0.0,66,0.00,,,0.00,meteohub,2013-02-26 03:14:00,
2013-02-25 19:20:00,58.1,46.8,29.72,West,270,0.0,0.0,66,0.00,,,0.00,meteohub,2013-02-26 03:20:00,
2013-02-25 19:26:00,57.7,46.9,29.72,West,270,0.0,0.0,67,0.00,,,0.00,meteohub,2013-02-26 03:26:00,
2013-02-25 19:32:00,57.6,46.2,29.72,West,270,0.0,0.0,66,0.00,,,0.00,meteohub,2013-02-26 03:32:00,
2013-02-25 19:38:00,57.2,45.9,29.72,West,270,0.0,0.0,66,0.00,,,0.00,meteohub,2013-02-26 03:38:00,
2013-02-25 19:44:00,57.7,46.9,29.72,West,270,0.0,0.0,67,0.00,,,0.00,meteohub,2013-02-26 03:44:00,
2013-02-25 19:50:00,58.1,47.7,29.72,SSE,168,0.0,0.0,68,0.00,,,0.00,meteohub,2013-02-26 03:50:00,
2013-02-25 19:56:00,58.1,47.7,29.72,SSE,168,0.0,0.0,68,0.00,,,0.00,meteohub,2013-02-26 03:56:00,
2013-02-25 20:02:00,57.6,47.1,29.72,SSE,168,0.0,0.0,68,0.00,,,0.00,meteohub,2013-02-26 04:02:00,
2013-02-25 20:08:00,56.8,46.4,29.72,SSE,168,0.0,0.0,68,0.00,,,0.00,meteohub,2013-02-26 04:08:00,
2013-02-25 20:14:00,56.3,46.2,29.72,SSE,168,0.0,0.0,69,0.00,,,0.00,meteohub,2013-02-26 04:14:00,
2013-02-25 20:20:00,56.1,42.4,29.72,SSE,168,0.0,0.0,60,0.00,,,0.00,meteohub,2013-02-26 04:20:00,
2013-02-25 20:26:00,55.6,34.0,29.72,SSE,160,0.0,0.0,44,0.00,,,0.00,meteohub,2013-02-26 04:26:00,
2013-02-25 20:32:00,55.4,28.9,29.72,North,3,4.0,0.0,36,0.00,,,0.00,meteohub,2013-02-26 04:32:00,
2013-02-25 20:38:00,55.0,27.9,29.72,North,353,2.0,4.0,35,0.00,,,0.00,meteohub,2013-02-26 04:38:00,
2013-02-25 20:44:00,55.0,26.4,29.72,North,11,0.0,5.0,33,0.00,,,0.00,meteohub,2013-02-26 04:44:00,
2013-02-25 20:50:00,55.0,25.7,29.72,NNE,13,3.0,4.0,32,0.00,,,0.00,meteohub,2013-02-26 04:50:00,
2013-02-25 20:56:00,55.0,25.7,29.72,North,1,2.0,5.0,32,0.00,,,0.00,meteohub,2013-02-26 04:56:00,
2013-02-25 21:00:00,54.5,26.1,29.72,North,0,0.0,5.0,33,0.00,,,0.00,meteohub,2013-02-26 05:00:00,
2013-02-25 21:02:00,54.5,26.1,29.72,North,357,0.0,5.0,33,0.00,,,0.00,meteohub,2013-02-26 05:02:00,
2013-02-25 21:08:00,54.0,24.8,29.72,NNW,335,0.0,5.0,32,0.00,,,0.00,meteohub,2013-02-26 05:08:00,
2013-02-25 21:10:00,54.0,24.8,29.72,North,357,0.0,3.0,32,0.00,,,0.00,meteohub,2013-02-26 05:10:00,
2013-02-25 21:17:00,53.4,24.3,29.72,NNE,17,0.0,4.0,32,0.00,,,0.00,meteohub,2013-02-26 05:17:00,
2013-02-25 21:23:00,52.9,23.9,29.72,North,357,0.0,4.0,32,0.00,,,0.00,meteohub,2013-02-26 05:23:00,
2013-02-25 21:29:00,53.1,24.8,29.72,North,2,0.0,4.0,33,0.00,,,0.00,meteohub,2013-02-26 05:29:00,
2013-02-25 21:35:00,53.1,26.8,29.72,North,10,0.0,2.0,36,0.00,,,0.00,meteohub,2013-02-26 05:35:00,
2013-02-25 21:41:00,53.1,26.8,29.72,North,7,0.0,3.0,36,0.00,,,0.00,meteohub,2013-02-26 05:41:00,
2013-02-25 21:47:00,53.1,26.8,29.72,NNE,18,3.0,3.0,36,0.00,,,0.00,meteohub,2013-02-26 05:47:00,
2013-02-25 21:53:00,52.9,27.3,29.72,North,0,2.0,3.0,37,0.00,,,0.00,meteohub,2013-02-26 05:53:00,
2013-02-25 21:59:00,52.9,27.3,29.72,NNE,17,2.0,3.0,37,0.00,,,0.00,meteohub,2013-02-26 05:59:00,
2013-02-25 22:05:00,52.7,27.9,29.72,NNE,17,0.0,4.0,38,0.00,,,0.00,meteohub,2013-02-26 06:05:00,
2013-02-25 22:11:00,53.1,28.8,29.72,NNE,16,0.0,4.0,39,0.00,,,0.00,meteohub,2013-02-26 06:11:00,
2013-02-25 22:17:00,53.4,29.1,29.72,North,2,0.0,2.0,39,0.00,,,0.00,meteohub,2013-02-26 06:17:00,
2013-02-25 22:23:00,52.9,28.6,29.72,NNE,13,0.0,0.0,39,0.00,,,0.00,meteohub,2013-02-26 06:23:00,
2013-02-25 22:29:00,52.5,28.2,29.72,NNE,13,0.0,0.0,39,0.00,,,0.00,meteohub,2013-02-26 06:29:00,
2013-02-25 22:35:00,52.3,28.8,29.72,NNE,13,0.0,0.0,40,0.00,,,0.00,meteohub,2013-02-26 06:35:00,
2013-02-25 22:41:00,52.3,28.0,29.72,NE,40,0.0,0.0,39,0.00,,,0.00,meteohub,2013-02-26 06:41:00,
2013-02-25 22:47:00,52.5,29.5,29.72,NE,40,0.0,0.0,41,0.00,,,0.00,meteohub,2013-02-26 06:47:00,
2013-02-25 22:53:00,52.3,29.3,29.72,NE,40,0.0,0.0,41,0.00,,,0.00,meteohub,2013-02-26 06:53:00,
2013-02-25 22:59:00,52.3,29.3,29.72,NE,40,0.0,0.0,41,0.00,,,0.00,meteohub,2013-02-26 06:59:00,
2013-02-25 23:05:00,52.5,31.3,29.72,NNE,17,0.0,0.0,44,0.00,,,0.00,meteohub,2013-02-26 07:05:00,
2013-02-25 23:11:00,52.7,33.6,29.72,NNE,18,0.0,0.0,48,0.00,,,0.00,meteohub,2013-02-26 07:11:00,
2013-02-25 23:17:00,52.7,33.1,29.72,NNE,18,0.0,0.0,47,0.00,,,0.00,meteohub,2013-02-26 07:17:00,
2013-02-25 23:23:00,52.7,33.6,29.72,NE,56,0.0,0.0,48,0.00,,,0.00,meteohub,2013-02-26 07:23:00,
2013-02-25 23:29:00,53.1,33.8,29.72,ENE,65,4.0,0.0,48,0.00,,,0.00,meteohub,2013-02-26 07:29:00,
2013-02-25 23:35:00,52.7,29.7,29.72,ENE,65,5.0,6.0,41,0.00,,,0.00,meteohub,2013-02-26 07:35:00,
2013-02-25 23:41:00,52.3,26.8,29.72,NE,44,4.0,6.0,37,0.00,,,0.00,meteohub,2013-02-26 07:41:00,
2013-02-25 23:47:00,51.8,25.7,29.72,ENE,67,5.0,6.0,36,0.00,,,0.00,meteohub,2013-02-26 07:47:00,
2013-02-25 23:54:00,51.6,25.5,29.72,ENE,67,5.0,6.0,36,0.00,,,0.00,meteohub,2013-02-26 07:54:00,